San Antonio Stinson, TX

8:04 PM CDT on October 20, 2019 (GMT -0500)
Stinson Municipal

Weather History for KSSF - September, 2019

Change the Weather History Date:

Saturday, September 21, 2019

  Actual Average Record
Temperature  
Mean Temperature 86 °F -  
Max Temperature 96 °F 86 °F 99 °F (2017)
Min Temperature 77 °F 65 °F 59 °F (2002)
Cooling Degree Days 22    
Growing Degree Days 36 (Base 50)    
Moisture  
Dew Point 73 °F    
Average Humidity 72    
Maximum Humidity 90    
Minimum Humidity 43    
Precipitation  
Precipitation 0.50 in - - ()
Sea Level Pressure  
Sea Level Pressure 29.97 in    
Wind  
Wind Speed 9 mph ()    
Max Wind Speed 18 mph    
Max Gust Speed 32 mph    
Visibility 9.3 miles    
Events Rain    
Averages and records for this station are not official NWS values.
T = Trace of Precipitation, MM = Missing Value Source: Averaged Metar Reports

Daily Weather History Graph

Daily Weather History Graph

Search for Another Location

Airport or City:

Astronomy

Sep. 21, 2019 Rise Set
Actual Time 7:21 AM CDT 7:31 PM CDT
Civil Twilight 6:57 AM CDT 7:55 PM CDT
Nautical Twilight 6:30 AM CDT 8:23 PM CDT
Astronomical Twilight 6:02 AM CDT 8:51 PM CDT
Moon No Moon Rise 2:00 PM CDT
Length of Visible Light 12h 57m
Length of Day
12h 10m
Waning Gibbous, 54% of the Moon is Illuminated
Sep 21
Waning Gibbous
Sep 21
Last Quarter
Sep 28
New
Oct 5
First Quarter
Oct 13
Full

Hourly Weather History & Observations

Time (CDT) Temp. Heat Index Dew Point Humidity Pressure Visibility Wind Dir Wind Speed Gust Speed Precip Events Conditions
12:53 AM 82.0 °F 88.6 °F 75.0 °F 79% 29.96 in 10.0 mi SE 12.7 mph - N/A   Mostly Cloudy
1:53 AM 80.1 °F 84.5 °F 73.9 °F 81% 29.94 in 10.0 mi SE 11.5 mph - N/A   Mostly Cloudy
2:04 AM 80.1 °F 85.1 °F 75.0 °F 85% 29.99 in 10.0 mi SE 10.4 mph - N/A   Scattered Clouds
2:53 AM 80.1 °F 84.5 °F 73.9 °F 81% 29.94 in 10.0 mi ESE 8.1 mph - N/A   Mostly Cloudy
3:03 AM 80.1 °F 84.5 °F 73.9 °F 81% 29.97 in 10.0 mi ESE 9.2 mph - N/A   Mostly Cloudy
3:42 AM 79.0 °F - 73.9 °F 84% 29.98 in 10.0 mi ESE 8.1 mph - N/A   Scattered Clouds
3:53 AM 79.0 °F - 73.9 °F 84% 29.94 in 10.0 mi ESE 5.8 mph - N/A   Mostly Cloudy
4:08 AM 79.0 °F - 73.9 °F 84% 29.98 in 10.0 mi ESE 4.6 mph - N/A   Overcast
4:53 AM 79.0 °F - 73.9 °F 84% 29.94 in 10.0 mi ESE 5.8 mph - N/A   Mostly Cloudy
5:13 AM 78.1 °F - 73.9 °F 87% 29.99 in 10.0 mi SE 4.6 mph - N/A   Scattered Clouds
5:53 AM 78.1 °F - 73.9 °F 87% 29.96 in 10.0 mi ESE 5.8 mph - N/A   Clear
6:53 AM 77.0 °F - 73.9 °F 90% 29.96 in 9.0 mi ESE 5.8 mph - N/A   Clear
7:37 AM 77.0 °F - 73.9 °F 90% 30.02 in 8.0 mi Calm Calm - N/A   Mostly Cloudy
7:53 AM 78.1 °F - 73.9 °F 87% 29.99 in 8.0 mi ESE 3.5 mph - N/A   Overcast
8:53 AM 80.1 °F 85.1 °F 75.0 °F 85% 30.00 in 10.0 mi ESE 6.9 mph - N/A   Mostly Cloudy
9:25 AM 82.0 °F 88.6 °F 75.0 °F 79% 30.04 in 10.0 mi ESE 9.2 mph - N/A   Overcast
9:33 AM 82.9 °F 90.2 °F 75.0 °F 77% 30.04 in 10.0 mi SE 9.2 mph - N/A   Overcast
9:53 AM 84.0 °F 91.9 °F 75.0 °F 74% 30.00 in 10.0 mi SE 10.4 mph - N/A   Mostly Cloudy
10:15 AM 84.9 °F 93.3 °F 75.0 °F 72% 30.04 in 10.0 mi SE 9.2 mph - N/A   Scattered Clouds
10:53 AM 88.0 °F 96.5 °F 73.9 °F 63% 30.00 in 10.0 mi SE 11.5 mph - N/A   Partly Cloudy
11:53 AM 91.9 °F 99.5 °F 72.0 °F 52% 29.98 in 10.0 mi ESE 11.5 mph - N/A   Mostly Cloudy
12:53 PM 90.0 °F 96.4 °F 71.1 °F 54% 29.97 in 10.0 mi SSE 9.2 mph - N/A   Mostly Cloudy
1:12 PM 82.0 °F 88.6 °F 75.0 °F 79% 30.01 in 1.8 mi ESE 18.4 mph 32.2 mph 0.08 in Rain Heavy Rain
1:21 PM 80.1 °F 84.5 °F 73.9 °F 81% 30.01 in 0.2 mi NNW 8.1 mph 29.9 mph 0.50 in Rain Heavy Rain
1:27 PM 82.9 °F 90.8 °F 75.9 °F 79% 30.01 in 8.0 mi Variable 5.8 mph - 0.50 in   Overcast
1:53 PM 86.0 °F 93.8 °F 73.9 °F 67% 29.96 in 10.0 mi SSE 10.4 mph - 0.50 in   Scattered Clouds
2:53 PM 93.9 °F 102.1 °F 72.0 °F 49% 29.92 in 10.0 mi SE 15.0 mph 23.0 mph N/A   Mostly Cloudy
3:53 PM 96.1 °F 102.9 °F 70.0 °F 43% 29.89 in 10.0 mi SE 17.3 mph 24.2 mph N/A   Scattered Clouds
4:53 PM 95.0 °F 100.7 °F 69.1 °F 43% 29.88 in 10.0 mi ESE 13.8 mph - N/A   Partly Cloudy
5:53 PM 93.0 °F 99.0 °F 70.0 °F 47% 29.87 in 10.0 mi SSE 12.7 mph - N/A   Clear
6:53 PM 91.0 °F 96.6 °F 70.0 °F 50% 29.88 in 10.0 mi SSE 11.5 mph - N/A   Partly Cloudy
7:53 PM 88.0 °F 92.9 °F 70.0 °F 55% 29.90 in 10.0 mi SE 16.1 mph 20.7 mph N/A   Partly Cloudy
8:53 PM 86.0 °F 90.7 °F 70.0 °F 59% 29.92 in 10.0 mi SE 15.0 mph - N/A   Clear
9:53 PM 84.0 °F 88.4 °F 70.0 °F 63% 29.95 in 10.0 mi SE 12.7 mph 23.0 mph N/A   Clear
10:53 PM 82.0 °F 86.7 °F 72.0 °F 71% 29.96 in 10.0 mi SE 12.7 mph - N/A   Clear
11:53 PM 81.0 °F 85.2 °F 72.0 °F 74% 29.96 in 10.0 mi ESE 6.9 mph - N/A   Scattered Clouds